This is the latest recevied weather packets stored in our database for station/object WP3OF-5. If no packets are shown the sender has not sent any weather packets the latest 10 day(s).
| Time | Temp. | Humidity | Pressure | Rain* | Wind** | Luminosity | Snow |
|---|---|---|---|---|---|---|---|
| 1777923515 | 31.11° C | 49% | 1014.9 hPa | 0 mm | - | - | - |
| 1777923213 | 31.11° C | 53% | 1014.8 hPa | 0 mm | - | - | - |
| 1777922911 | 31.67° C | 52% | 1015 hPa | 0 mm | - | - | - |
| 1777922609 | 31.67° C | 53% | 1015.1 hPa | 0 mm | - | - | - |
| 1777922307 | 31.11° C | 53% | 1015 hPa | 0 mm | - | - | - |
| 1777922004 | 31.11° C | 52% | 1014.9 hPa | 0 mm | - | - | - |
| 1777921700 | 31.11° C | 50% | 1014.9 hPa | 0 mm | - | - | - |
| 1777921396 | 31.67° C | 50% | 1014.9 hPa | 0 mm | - | - | - |
| 1777921092 | 31.67° C | 51% | 1015.1 hPa | 0 mm | - | - | - |
| 1777920790 | 31.67° C | 50% | 1014.9 hPa | 0 mm | - | - | - |
| 1777920486 | 31.67° C | 50% | 1015 hPa | 0 mm | - | - | - |
| 1777920181 | 32.22° C | 46% | 1014.9 hPa | 0 mm | - | - | - |
| 1777919877 | 31.67° C | 47% | 1014.9 hPa | 0 mm | - | - | - |
| 1777919574 | 31.67° C | 49% | 1015.1 hPa | 0 mm | - | - | - |
| 1777919273 | 31.67° C | 47% | 1015 hPa | 0 mm | - | - | - |
| 1777918969 | 31.67° C | 48% | 1015.2 hPa | 0 mm | - | - | - |
| 1777918667 | 31.11° C | 48% | 1015.2 hPa | 0 mm | - | - | - |
| 1777918364 | 31.67° C | 46% | 1015.2 hPa | 0 mm | - | - | - |
| 1777918063 | 31.67° C | 46% | 1015.5 hPa | 0 mm | - | - | - |
| 1777917761 | 31.67° C | 45% | 1015.6 hPa | 0 mm | - | - | - |
| 1777917459 | 31.67° C | 48% | 1015.6 hPa | 0 mm | - | - | - |
| 1777917155 | 31.67° C | 46% | 1015.3 hPa | 0 mm | - | - | - |
| 1777916853 | 32.22° C | 45% | 1015.8 hPa | 0 mm | - | - | - |
| 1777916551 | 32.78° C | 45% | 1015.6 hPa | 0 mm | - | - | - |
| 1777916247 | 32.78° C | 45% | 1015.8 hPa | 0 mm | - | - | - |
* Rain latest hour (hover to see other rain measurements)
** Current wind speed in m/s (hover to see current wind gust speed)